Pine Ridge, SD

10:12 PM MDT on April 22, 2018 (GMT -0600)
Pine Ridge

Weather History for KIEN - November, 2013

Change the Weather History Date:

Sunday, November 3, 2013

  Actual Average Record
Temperature  
Mean Temperature 48 °F 40 °F  
Max Temperature 64 °F 55 °F 79 °F (2015)
Min Temperature 32 °F 26 °F 10 °F (2011)
Degree Days  
Heating Degree Days 17 25  
Month to date heating degree days 69 73  
Since 1 July heating degree days 846 828  
Cooling Degree Days 0 0  
Month to date cooling degree days 0 0  
Year to date cooling degree days 804 717  
Moisture  
Dew Point 30 °F    
Average Humidity 53    
Maximum Humidity 82    
Minimum Humidity 23    
Precipitation  
Precipitation 0.04 in 0.03 in 0.40 in (2014)
Month to date precipitation 0.06 0.08  
Year to date precipitation 19.19 16.68  
Sea Level Pressure  
Sea Level Pressure 29.66 in    
Wind  
Wind Speed 6 mph (WNW)    
Max Wind Speed 20 mph    
Max Gust Speed 26 mph    
Visibility 10 miles    
Events Rain    
T = Trace of Precipitation, MM = Missing Value Source: NWS Daily Summary

Daily Weather History Graph

Daily Weather History Graph

Search for Another Location

Airport or City:

Astronomy

Nov. 03, 2013 Rise Set
Actual Time 6:27 AM MST 4:39 PM MST
Civil Twilight 5:57 AM MST 5:08 PM MST
Nautical Twilight 5:24 AM MST 5:42 PM MST
Astronomical Twilight 4:51 AM MST 6:15 PM MST
Moon 6:34 AM MST (11/3) 4:54 PM MST (11/3)
Length of Visible Light 11h 10m
Length of Day
10h 11m
New Moon, 0% of the Moon is Illuminated
Nov 3
New Moon
Nov 9
First Quarter
Nov 17
Full
Nov 25
Last Quarter
Dec 2
New

Hourly Weather History & Observations

Time (MST) Temp. Windchill Dew Point Humidity Pressure Visibility Wind Dir Wind Speed Gust Speed Precip Events Conditions
12:52 AM 46.9 °F - 28.0 °F 48% 29.63 in 10.0 mi South 17.3 mph 26.5 mph N/A   Clear
1:52 AM 44.1 °F 39.5 °F 28.0 °F 53% 29.63 in 10.0 mi South 8.1 mph - N/A   Clear
1:52 AM 42.1 °F 39.2 °F 28.0 °F 58% 29.63 in 10.0 mi South 4.6 mph - N/A   Clear
2:52 AM 42.1 °F 37.1 °F 28.0 °F 58% 29.61 in 10.0 mi South 8.1 mph - N/A   Clear
3:52 AM 37.9 °F - 27.0 °F 65% 29.61 in 10.0 mi Calm Calm - N/A   Clear
4:52 AM 34.0 °F - 26.1 °F 73% 29.62 in 10.0 mi Calm Calm - N/A   Clear
5:52 AM 33.1 °F 28.7 °F 27.0 °F 78% 29.61 in 10.0 mi NNW 4.6 mph - N/A   Clear
6:52 AM 32.0 °F - 27.0 °F 82% 29.58 in 10.0 mi Calm Calm - N/A   Clear
7:52 AM 39.9 °F - 30.0 °F 68% 29.59 in 10.0 mi Calm Calm - N/A   Clear
8:52 AM 45.0 °F 42.6 °F 30.0 °F 56% 29.57 in 10.0 mi South 4.6 mph - N/A   Clear
9:52 AM 51.1 °F - 30.0 °F 44% 29.56 in 10.0 mi SW 8.1 mph - N/A   Clear
10:52 AM 57.9 °F - 30.0 °F 35% 29.55 in 10.0 mi SW 3.5 mph - N/A   Clear
11:52 AM 62.1 °F - 25.0 °F 24% 29.53 in 10.0 mi West 11.5 mph - N/A   Clear
12:52 PM 55.9 °F - 30.9 °F 39% 29.57 in 10.0 mi North 13.8 mph - N/A   Clear
1:52 PM 55.0 °F - 35.1 °F 47% 29.58 in 10.0 mi North 12.7 mph 19.6 mph N/A   Clear
2:52 PM 48.9 °F - 35.1 °F 59% 29.61 in 10.0 mi North 11.5 mph - N/A   Clear
3:52 PM 48.9 °F - 35.1 °F 59% 29.65 in 10.0 mi North 13.8 mph 20.7 mph N/A   Clear
4:52 PM 44.1 °F 39.5 °F 34.0 °F 68% 29.70 in 10.0 mi North 8.1 mph - N/A   Clear
5:52 PM 37.9 °F 34.4 °F 32.0 °F 79% 29.74 in 10.0 mi North 4.6 mph - N/A   Clear
6:52 PM 37.9 °F 33.5 °F 32.0 °F 79% 29.76 in 10.0 mi North 5.8 mph - N/A   Clear
7:52 PM 42.1 °F 37.7 °F 30.9 °F 65% 29.77 in 10.0 mi North 6.9 mph - N/A   Overcast
8:52 PM 41.0 °F - 30.0 °F 65% 29.80 in 10.0 mi Calm Calm - N/A   Overcast
9:52 PM 39.9 °F 35.1 °F 33.1 °F 77% 29.83 in 10.0 mi SW 6.9 mph - N/A   Overcast
10:31 PM 41.0 °F 35.8 °F 33.8 °F 76% 29.83 in 10.0 mi NW 8.1 mph - 0.00 in Rain Light Rain
10:52 PM 39.0 °F 34.0 °F 34.0 °F 82% 29.84 in 10.0 mi NNW 6.9 mph - 0.01 in Rain Light Rain